Theta_e
324 324 325 322 325 322 318 316 302 307 304 299 299 300 298 303 305 302 303 301 301 301 300 298 299 301 300 299 300 300 300 299 302 296 299 309 314 313 316 317 316 319 321 319 324 330 332 332 332 333 331 330 330 330 329 329 330 327 327 327 327 326 326 326 325 325 325 325 324 324 324 324 324 324 324 323 324 324 325 326 326 328 328 328 328 328 328 329 333 334 333 333 329 330 328 328 329
322 323 324 325 322 317 312 312 305 302 302 298 300 301 301 302 300 301 301 303 302 299 298 300 300 300 297 298 298 299 301 302 306 307 311 309 310 313 314 318 315 317 321 319 325 328 331 331 332 332 331 330 330 329 329 330 329 327 326 327 326 325 326 324 326 325 325 324 324 323 324 323 323 323 323 323 324 324 325 325 327 328 327 327 327 328 328 331 332 333 333 333 329 329 330 328 328
320 322 322 323 321 316 312 310 299 301 297 295 299 301 303 300 300 303 303 303 301 299 298 298 298 298 299 298 298 299 300 302 302 302 304 308 306 316 314 317 316 319 320 320 325 327 332 331 332 331 330 330 330 329 329 330 328 327 327 327 325 325 324 326 325 324 323 323 322 323 323 323 323 323 323 323 324 323 324 325 327 327 327 327 327 327 328 331 332 332 332 332 330 327 330 328 328
323 324 321 319 313 314 307 306 302 300 297 298 298 303 302 301 302 304 304 302 299 298 298 298 298 301 300 298 300 299 301 303 304 305 304 307 311 317 316 317 317 319 320 321 325 327 329 331 330 330 330 330 330 329 331 329 328 326 327 325 325 323 325 325 324 322 322 322 322 322 322 322 322 323 323 323 323 323 323 324 325 326 326 326 326 328 328 331 331 331 331 331 330 330 328 329 329
321 324 321 317 311 306 307 304 302 301 296 300 297 302 302 303 304 304 303 300 299 298 298 299 299 300 300 299 300 299 302 305 303 304 306 309 310 318 317 317 315 318 318 319 323 325 329 329 330 329 329 331 330 330 330 329 328 326 325 325 324 324 324 324 323 322 321 322 322 322 321 322 322 322 322 323 323 322 322 323 325 325 325 326 326 328 329 330 330 331 332 331 329 331 332 331 330
319 320 321 317 308 312 307 300 299 298 302 304 300 302 304 305 303 304 303 301 300 299 299 299 299 298 298 300 302 302 305 302 304 303 306 309 311 318 316 316 315 317 317 318 321 324 327 329 329 328 329 331 330 331 330 328 327 327 325 324 322 323 323 323 322 322 321 322 322 321 321 321 322 322 322 322 321 321 321 322 324 325 325 326 326 327 330 329 329 330 330 330 331 331 332 332 331
315 316 315 313 310 310 300 299 299 301 303 305 303 304 305 305 304 302 304 301 298 299 299 299 298 299 297 301 300 303 304 303 305 306 309 310 313 316 315 314 317 317 317 317 321 324 327 328 328 327 328 330 330 331 329 328 327 328 326 323 322 322 323 323 322 321 322 321 321 321 320 321 321 321 320 320 320 320 321 322 324 324 325 326 326 327 328 329 328 329 330 330 330 331 331 331 331
318 313 312 305 304 303 298 299 299 302 303 304 306 304 306 306 303 302 303 300 300 298 298 299 298 297 300 295 300 304 301 302 306 305 305 306 313 316 314 314 317 316 316 317 321 324 326 328 327 327 328 329 330 331 329 328 327 328 326 323 322 321 322 322 320 321 320 321 321 320 320 320 320 320 319 319 318 318 320 322 322 323 324 326 325 327 328 328 328 329 330 330 331 331 331 331 330
315 313 310 306 299 303 298 298 299 304 303 302 303 305 308 306 304 303 303 302 300 300 299 299 299 297 299 298 298 304 304 303 303 305 307 306 311 316 313 313 316 316 317 316 320 324 325 327 325 326 327 328 329 330 328 327 327 327 326 323 321 321 321 320 321 320 321 320 320 320 320 320 320 320 318 318 317 317 319 320 321 322 324 325 326 327 327 327 327 329 330 330 330 331 331 330 330
312 310 303 303 304 296 297 298 298 301 302 305 304 305 306 305 304 303 303 302 301 299 300 298 298 297 299 298 301 304 304 301 303 304 306 307 311 317 312 313 316 316 317 316 319 322 323 325 326 326 326 328 329 329 327 327 327 327 327 324 323 322 321 320 320 321 320 320 320 319 319 319 319 318 317 316 315 316 317 318 320 321 323 325 325 326 326 326 328 329 329 329 330 330 331 331 330
303 308 310 301 297 295 294 297 299 302 301 302 303 305 306 304 303 302 302 302 299 300 297 296 296 296 298 300 302 304 302 301 304 305 308 307 311 314 313 312 314 317 316 318 318 320 321 321 325 326 326 327 328 328 327 327 327 326 327 325 323 322 321 320 320 319 319 319 319 319 319 318 318 317 316 314 314 314 315 316 317 320 322 324 325 325 326 326 327 328 329 330 330 331 331 330 330
302 303 303 296 295 296 297 297 299 302 303 302 302 306 305 304 302 301 301 299 301 299 300 298 300 302 298 300 303 304 303 303 304 307 304 308 309 313 316 312 313 314 318 318 318 319 320 320 323 325 326 327 328 328 327 327 326 326 326 325 323 323 322 320 319 319 319 319 319 318 318 318 317 316 315 314 313 314 314 314 316 319 321 323 324 324 325 326 327 329 329 330 331 330 330 330 329
304 306 301 298 297 299 299 298 298 300 300 302 303 301 300 301 301 304 303 302 300 300 300 301 300 300 300 301 306 304 303 304 303 304 305 307 310 312 314 312 312 313 314 317 316 317 319 317 319 324 324 326 327 327 328 327 326 326 326 325 324 324 322 320 318 318 318 318 318 317 316 316 315 315 316 314 314 314 313 313 315 317 320 321 323 324 325 325 328 329 329 331 330 330 330 329 328
304 307 303 296 301 298 298 298 300 297 299 304 304 299 299 301 303 303 302 300 301 300 301 302 300 301 300 301 305 304 304 303 303 304 305 307 310 310 312 312 313 311 314 314 314 316 317 315 315 322 325 324 324 325 326 326 326 325 326 325 324 323 322 320 318 317 317 316 316 315 315 315 314 315 314 315 314 314 313 313 315 316 318 320 322 323 323 325 328 329 329 330 329 329 328 328 327
303 306 303 301 299 297 299 295 297 298 299 303 301 299 299 301 300 299 301 301 303 302 299 300 302 300 300 301 303 303 304 303 302 304 307 307 310 310 312 312 311 312 311 311 312 314 313 313 312 319 324 323 323 322 322 323 325 325 325 325 324 323 322 319 317 316 316 316 315 315 315 313 313 315 313 315 315 313 313 313 315 316 318 319 321 322 322 325 328 327 328 328 328 327 327 326 325
309 305 303 297 294 296 298 297 299 298 299 303 297 294 296 301 300 299 301 301 302 298 299 300 298 301 302 301 303 303 301 302 303 305 307 309 310 311 311 310 309 309 311 310 310 312 313 312 312 314 320 322 324 323 323 322 323 323 324 324 325 324 323 320 317 317 318 318 317 317 315 313 311 312 311 313 313 314 313 315 314 316 317 319 321 321 322 325 326 327 327 327 327 326 325 325 325
307 308 297 296 293 294 298 298 299 296 302 301 298 296 298 299 297 299 298 299 299 301 297 302 300 301 299 303 303 301 301 303 304 306 309 308 309 308 309 309 309 309 308 310 310 310 312 312 312 312 315 320 322 322 322 322 322 323 323 324 323 323 323 321 318 319 319 319 318 316 314 313 313 312 312 313 312 313 312 313 314 315 316 317 320 319 320 323 325 326 326 326 326 325 325 325 325
306 298 296 294 296 295 300 299 300 300 300 300 296 298 297 298 297 298 298 298 299 300 298 301 302 300 303 305 300 302 303 303 304 305 309 310 309 308 307 308 308 308 309 309 310 310 310 311 312 312 313 318 320 322 323 323 322 321 319 320 321 322 322 320 318 315 317 316 317 315 314 313 312 312 312 313 313 313 314 311 312 314 314 315 317 317 318 321 323 325 325 325 325 325 325 326 326
301 298 297 293 298 299 302 302 303 301 302 301 298 294 296 299 299 300 298 301 299 298 299 300 300 302 304 304 304 301 303 303 304 306 311 311 309 308 309 309 308 308 309 309 310 309 311 311 311 311 312 315 319 321 322 321 320 317 319 321 320 321 320 319 317 316 316 316 316 315 312 313 313 313 312 315 314 310 313 311 311 311 313 313 315 314 314 318 321 323 324 323 324 325 326 326 326
302 299 294 296 301 302 301 301 302 303 303 302 301 297 294 299 298 299 298 301 303 300 302 301 299 302 305 306 305 307 307 307 308 308 310 311 310 309 311 311 310 309 310 310 310 311 310 310 311 311 312 314 317 317 319 318 317 316 316 318 318 318 320 319 318 316 316 316 315 313 312 313 314 312 313 309 311 313 312 310 308 310 311 311 311 316 314 316 317 321 322 322 325 325 326 325 324
301 299 296 298 301 300 302 303 303 302 299 301 299 295 294 299 298 298 300 298 300 302 304 304 305 306 307 308 309 312 307 305 307 306 306 308 309 310 309 312 311 310 311 312 312 312 310 310 310 311 313 314 315 315 317 315 316 314 315 317 318 317 318 317 316 315 315 316 315 313 314 314 314 312 312 311 311 311 311 311 311 312 314 316 313 318 319 323 324 327 327 325 325 325 324 324 324
301 299 301 301 298 299 303 303 301 300 295 297 297 295 300 297 294 295 298 297 300 305 306 305 306 307 307 308 307 304 303 303 303 304 305 305 307 308 310 311 312 312 312 309 310 310 311 310 311 311 312 313 314 314 314 314 315 313 314 314 316 316 318 316 315 314 313 314 314 314 313 313 313 312 311 311 311 311 311 310 310 310 313 315 315 317 318 322 324 325 325 324 324 324 324 324 322
296 299 298 300 301 300 301 299 297 296 297 296 297 299 298 296 299 300 299 299 303 307 306 306 306 307 307 302 301 301 302 302 303 303 305 306 306 307 309 309 309 308 309 308 310 310 311 311 311 311 310 311 313 314 314 314 313 313 314 315 314 314 315 315 313 312 312 314 315 315 312 311 311 311 310 310 310 310 310 310 309 309 312 313 314 315 317 321 323 324 324 324 323 324 324 323 321
297 297 298 299 298 299 300 298 293 294 296 297 298 295 295 298 296 298 296 300 303 305 306 305 305 304 302 301 302 302 303 303 303 304 304 306 308 308 309 308 309 310 309 309 309 310 311 310 311 312 311 311 313 313 313 313 313 314 314 314 314 313 314 313 312 312 313 313 314 312 311 312 311 310 310 309 310 310 310 310 310 309 309 310 313 314 316 321 322 323 324 324 323 323 323 322 320
296 296 299 297 294 298 299 296 294 294 295 297 293 294 297 298 298 296 296 300 302 303 304 304 303 303 302 301 301 301 301 302 302 304 307 305 307 310 311 310 309 309 308 308 309 309 310 311 311 311 311 311 312 312 312 312 313 314 314 313 314 315 313 313 313 313 312 311 313 314 312 311 310 310 309 309 309 310 310 310 310 309 309 310 312 313 315 320 322 323 323 323 322 322 322 320 318
297 299 297 295 296 297 296 295 295 295 295 293 293 295 298 298 297 295 298 300 303 304 303 303 303 301 300 300 301 301 301 301 302 303 303 306 307 305 306 306 307 306 308 308 309 309 310 310 310 310 311 311 311 312 311 312 313 313 314 314 314 315 313 314 314 312 311 312 312 313 313 311 311 309 310 309 309 309 310 310 310 309 309 310 312 313 313 319 321 322 322 323 322 321 320 317 316
297 298 297 297 298 294 296 294 297 292 294 296 294 296 298 295 296 295 303 301 298 298 298 299 297 298 299 300 300 300 300 301 301 303 303 303 303 303 304 306 306 306 307 307 308 309 310 309 309 310 311 312 312 311 311 312 313 313 314 314 315 315 314 315 313 311 311 311 311 314 314 312 311 310 310 309 309 309 310 310 309 309 309 310 311 312 313 319 321 321 322 322 321 320 317 316 314
294 294 293 294 295 293 294 292 293 293 294 294 294 294 297 295 294 295 301 296 298 298 299 299 298 299 299 300 300 301 301 301 302 301 300 301 302 303 303 305 306 306 306 307 308 309 310 309 309 310 311 311 312 311 312 312 313 313 315 314 314 315 316 314 312 311 311 311 313 314 313 312 311 310 311 310 309 309 309 309 310 309 309 310 311 311 312 319 321 321 321 322 321 318 315 314 313
292 292 293 295 294 293 294 293 292 291 293 292 294 292 293 294 292 298 301 299 299 299 299 300 300 301 302 302 301 301 300 301 301 300 300 301 303 304 304 307 307 307 308 308 309 309 309 309 308 310 311 311 311 311 311 312 313 314 314 314 314 315 314 314 312 311 311 312 313 314 313 313 311 310 310 310 309 309 309 309 309 309 309 310 311 311 315 320 321 320 320 320 319 317 315 313 313
291 292 292 292 293 293 291 290 290 290 292 291 292 288 295 296 297 299 301 297 296 296 297 299 299 300 300 299 299 299 299 300 299 300 301 302 303 304 304 306 307 308 309 309 309 308 309 310 310 310 310 310 311 311 311 311 313 313 313 313 313 314 313 313 312 312 311 311 312 313 313 313 311 311 311 310 309 309 309 309 309 309 309 311 310 310 312 318 319 319 320 317 314 315 313 312 311
293 291 291 291 290 291 291 291 291 291 292 291 292 289 294 297 298 300 297 294 293 296 298 299 299 299 300 301 301 300 301 302 302 302 303 303 303 304 304 305 306 307 307 308 308 308 308 309 310 310 310 310 310 310 311 312 313 312 312 312 312 313 313 313 312 312 311 311 311 312 313 312 312 311 311 310 309 309 308 308 308 308 309 310 309 310 312 317 319 319 318 316 314 313 311 310 309
293 290 290 290 288 292 292 290 290 291 292 293 292 289 292 296 298 298 294 294 294 295 298 299 299 300 300 301 301 301 301 303 303 302 302 303 303 303 304 303 304 305 306 307 308 308 307 308 309 308 309 309 310 310 312 312 313 313 312 311 312 314 312 312 312 312 311 311 311 311 313 313 312 312 311 311 308 309 308 308 308 309 310 309 309 310 313 317 319 319 318 317 314 311 310 309 308
290 290 290 289 289 290 291 291 290 290 291 293 292 290 293 295 299 299 294 296 295 296 297 299 299 300 300 300 301 301 302 302 303 303 303 303 304 303 304 304 304 305 305 306 307 308 307 308 307 307 308 308 309 311 312 312 312 312 312 311 313 313 312 312 312 312 311 311 310 310 312 312 312 312 311 311 309 309 308 308 308 310 310 309 308 310 313 317 318 318 316 314 314 310 309 308 307
290 290 288 291 287 289 289 291 290 292 291 292 292 289 292 295 297 299 299 299 298 297 298 299 300 300 301 301 301 301 301 302 302 304 305 305 305 305 304 304 304 304 305 305 307 307 306 307 307 307 308 309 309 310 311 311 311 311 311 311 311 311 312 312 312 311 311 310 310 310 312 312 311 312 312 311 309 309 309 309 308 309 309 309 308 309 313 316 318 317 313 312 311 311 309 307 305
289 288 288 288 287 286 288 289 290 291 291 290 292 291 291 294 297 298 299 300 298 297 298 298 299 300 300 301 301 301 302 302 303 306 306 305 305 304 305 304 303 303 303 304 305 306 307 307 306 307 308 309 309 310 311 311 311 311 311 311 310 311 311 311 311 310 311 310 310 311 313 311 311 312 312 311 310 308 308 309 308 309 309 308 308 309 312 316 316 315 313 309 309 310 308 307 305
290 290 290 289 287 289 288 292 290 289 291 291 291 290 293 295 297 299 299 300 299 299 300 300 300 301 301 301 301 302 303 303 306 307 308 306 305 305 305 303 302 303 302 303 304 306 305 306 306 307 307 308 308 309 310 309 308 307 307 308 308 308 309 309 310 310 311 310 311 312 312 311 312 312 312 311 310 309 308 308 308 309 309 308 307 307 310 314 315 313 310 309 307 306 307 306 305
290 290 289 288 288 289 291 291 290 291 290 291 293 293 293 294 296 298 300 300 300 299 300 301 301 302 302 302 302 303 303 304 308 308 306 306 306 305 304 303 301 300 301 302 303 304 305 305 305 305 307 308 307 307 307 307 306 306 307 307 307 308 308 309 308 309 310 310 312 311 312 311 313 312 312 311 310 309 308 308 309 308 308 308 307 307 311 315 315 313 309 308 307 306 305 306 306
290 289 289 289 289 287 291 290 290 292 289 292 291 291 293 295 297 299 301 300 299 300 300 301 301 301 301 302 302 303 304 305 306 305 305 305 304 305 303 302 301 299 300 301 302 303 304 305 305 306 307 307 307 307 307 307 308 308 307 307 308 308 307 307 307 308 309 311 311 311 312 311 313 312 311 311 310 310 308 308 308 307 307 307 307 309 312 312 312 311 309 307 308 307 305 306 306
290 289 290 288 289 291 292 288 289 291 290 291 292 290 293 296 298 300 300 300 300 301 301 301 300 301 301 302 303 303 303 304 306 306 305 304 304 305 303 302 301 301 302 301 302 304 304 305 305 306 307 307 307 307 308 307 308 310 309 309 309 309 310 309 310 309 309 309 310 311 311 311 312 311 312 311 311 310 309 308 308 308 307 308 307 306 309 312 312 310 309 309 306 307 306 306 305
290 289 287 287 290 286 287 290 289 291 290 291 291 290 293 296 299 299 300 300 299 300 298 298 300 300 301 302 302 301 302 305 306 306 305 304 304 303 303 302 301 301 301 302 302 303 304 304 305 306 307 307 307 307 308 309 309 310 311 311 310 310 308 309 310 309 309 309 308 310 310 311 311 311 312 311 311 310 309 308 308 308 307 308 307 306 307 310 311 310 310 309 308 305 304 303 305
291 290 289 288 288 289 288 289 289 291 289 289 290 291 294 298 296 297 300 297 298 300 299 299 300 301 301 302 300 301 301 303 305 306 306 305 304 304 304 302 301 300 301 302 302 302 303 304 305 306 307 307 307 307 308 309 309 308 308 309 309 307 307 306 306 305 307 307 308 308 308 310 311 311 311 311 310 310 310 309 308 308 308 307 307 307 307 309 311 311 311 309 308 307 304 304 303
290 292 291 291 289 289 289 289 289 291 290 289 290 287 290 296 296 296 300 300 299 299 298 300 301 301 301 299 302 305 304 303 302 303 304 303 303 304 304 301 300 301 300 302 304 304 304 304 305 306 307 307 307 307 308 308 307 306 305 304 303 304 304 304 304 304 305 305 306 308 308 308 309 310 310 310 310 309 309 309 309 308 307 307 307 306 307 309 311 311 310 310 309 310 308 305 303
287 288 289 291 289 288 287 290 291 287 286 289 290 285 284 294 294 297 298 296 297 301 300 300 300 300 299 301 304 304 304 304 305 303 303 303 304 304 305 303 302 302 302 304 304 304 304 305 305 306 306 306 307 307 308 307 307 307 306 306 306 305 305 306 308 308 307 307 308 308 308 308 309 309 310 310 310 309 309 309 309 308 308 307 306 306 306 308 310 311 311 310 310 310 309 306 305
288 288 289 288 289 289 290 290 288 289 290 287 286 290 286 286 293 298 295 295 297 299 300 301 301 298 299 300 302 304 305 303 303 303 303 303 303 303 303 303 301 301 303 302 303 304 303 304 305 305 306 306 307 307 307 307 306 307 307 308 308 307 308 308 308 308 309 308 307 308 308 308 308 309 309 309 309 309 308 308 308 308 308 307 306 305 305 307 309 311 310 310 310 310 309 307 306
289 288 289 290 290 291 290 290 290 288 285 286 286 287 284 286 293 296 296 294 297 298 299 300 301 303 304 306 304 303 303 302 301 301 302 302 303 304 303 303 303 300 300 301 303 304 304 304 304 305 305 306 306 306 306 306 307 307 308 308 308 309 310 310 308 308 308 308 307 308 307 307 307 307 308 308 309 308 307 307 307 307 307 307 306 306 306 306 307 309 309 308 308 308 308 308 308
288 289 289 289 290 289 290 290 290 288 285 284 285 286 283 286 293 295 295 293 295 297 298 300 301 301 302 303 303 303 302 302 303 300 300 301 302 302 303 301 301 302 301 302 303 304 304 304 304 304 304 305 306 306 306 306 307 307 307 308 308 308 308 308 308 306 306 307 306 307 307 307 307 306 307 308 308 308 307 307 307 307 307 307 305 306 306 307 306 308 309 309 309 308 308 307 308
289 290 291 291 290 288 288 288 288 287 282 286 284 284 284 283 293 294 294 295 298 297 299 300 303 304 304 303 303 302 300 300 300 300 300 301 301 300 300 301 302 301 301 301 302 303 304 304 304 303 304 305 306 305 305 306 306 307 307 308 309 309 308 308 305 305 305 305 305 306 306 306 306 306 306 306 307 307 307 307 306 306 307 307 306 306 306 305 305 306 308 309 308 308 308 307 307
290 290 289 290 288 287 287 286 286 283 282 285 284 284 284 282 290 296 297 296 294 296 297 298 300 301 301 302 302 301 300 299 299 299 300 302 302 303 301 302 302 302 300 300 302 303 303 304 304 303 304 305 305 305 305 306 306 306 307 308 308 309 308 307 305 305 305 305 305 305 306 306 306 306 306 305 305 306 306 306 306 306 306 306 305 306 306 306 305 305 305 306 307 308 309 307 307
291 290 289 284 283 284 281 284 280 282 283 284 284 284 283 283 289 295 296 297 296 296 297 299 299 299 301 302 303 301 301 299 299 299 300 302 303 304 304 304 303 301 301 301 302 303 303 304 304 303 304 305 305 305 305 305 306 306 306 307 308 308 308 307 306 306 307 305 305 306 305 304 305 304 305 304 305 305 305 305 305 305 305 305 306 306 306 306 306 305 304 305 305 306 307 307 306
289 288 287 283 280 279 276 280 279 280 284 283 285 286 282 290 293 297 296 299 299 299 299 300 299 299 299 300 300 298 300 300 299 299 300 302 303 303 303 302 302 303 302 302 302 302 303 303 303 303 304 305 305 305 305 305 305 306 306 306 307 307 307 307 307 306 307 306 307 306 306 305 305 305 305 304 305 305 304 305 305 305 306 306 306 306 306 306 306 304 304 304 304 304 305 306 306
290 291 287 286 284 281 277 281 280 281 283 283 284 282 285 285 291 292 295 297 298 297 297 299 298 298 298 297 297 297 299 300 300 300 301 301 302 301 302 302 302 302 302 302 301 302 303 303 303 303 304 304 304 304 305 305 305 306 306 306 307 307 307 307 307 307 307 306 307 307 307 307 306 306 306 306 306 305 305 305 305 305 305 305 305 305 305 305 305 304 304 304 304 304 304 304 304
290 290 290 286 285 287 283 282 282 281 283 283 281 284 290 291 295 296 298 298 297 297 297 295 296 296 296 297 300 300 300 300 301 301 303 303 302 300 301 301 301 301 301 302 301 302 303 303 303 303 304 305 304 304 304 305 305 306 306 306 306 306 306 307 306 306 307 308 307 306 306 307 307 307 307 307 306 305 304 304 305 305 305 305 305 305 304 304 303 303 303 303 303 303 302 303 303
288 288 286 287 287 287 280 276 276 276 280 281 286 285 289 293 294 296 296 294 295 293 292 293 296 297 296 298 301 300 300 301 302 303 302 302 303 302 302 301 301 301 301 301 302 302 303 303 303 303 303 304 304 304 304 305 305 305 305 306 306 306 305 305 305 306 306 307 307 306 306 307 307 307 307 307 306 305 305 304 304 304 304 304 304 303 303 303 303 302 302 302 302 302 301 302 302
288 285 288 288 290 289 285 282 281 281 279 282 281 282 285 285 285 298 296 296 296 296 295 295 296 297 296 301 303 302 302 300 299 300 300 301 300 301 301 301 301 301 301 302 301 302 302 303 303 303 303 303 304 304 304 304 304 304 305 305 305 306 305 305 306 306 306 306 306 306 306 306 306 306 306 306 305 304 304 302 303 303 304 303 303 303 303 302 302 301 302 302 302 302 300 301 301
289 287 288 286 284 283 285 283 277 277 277 280 283 282 281 284 287 293 294 295 296 297 298 296 297 298 299 301 303 304 303 302 302 301 302 302 302 303 302 302 301 301 301 302 302 302 301 301 302 302 303 303 304 304 304 304 305 305 305 305 305 305 305 305 306 306 306 305 305 305 305 305 306 306 305 304 304 303 303 302 302 303 303 302 302 302 302 301 301 301 301 301 301 301 300 300 300
287 289 288 284 285 286 284 284 283 283 279 277 281 280 282 289 290 293 294 296 297 296 296 296 297 298 299 300 301 301 302 301 300 300 301 301 302 302 301 300 301 303 303 303 302 302 301 301 301 301 302 303 303 303 303 303 304 304 305 305 305 305 305 305 305 305 304 304 304 304 304 304 305 305 304 304 303 303 302 302 301 302 302 301 301 301 301 300 300 300 300 300 300 300 299 299 300
285 287 286 286 285 286 286 284 284 283 280 280 278 278 285 292 294 294 295 296 297 297 297 299 299 300 301 300 300 301 300 300 301 302 301 302 303 302 301 300 300 300 300 300 301 301 302 302 301 301 301 301 301 302 303 303 303 304 304 304 304 304 304 305 304 304 304 304 304 304 304 305 305 304 304 303 303 303 302 302 301 301 301 300 300 300 300 300 299 299 300 300 300 299 298 299 299
290 288 287 289 284 283 281 281 280 279 282 279 278 279 286 293 294 295 296 297 297 298 298 298 299 299 300 301 301 299 300 301 301 302 302 304 303 303 302 301 301 299 300 300 301 300 300 301 302 302 302 302 302 302 302 303 303 303 303 303 304 304 304 304 304 304 303 303 303 303 304 304 304 304 304 303 302 303 302 302 301 300 300 300 300 299 299 299 298 298 299 299 299 298 297 298 298
Wind_Speed
5 4 2 2 1 2 3 2 7 3 3 7 5 4 2 1 4 6 7 3 5 4 0 2 3 6 5 1 5 6 3 5 3 5 3 2 2 1 4 6 3 4 9 9 10 10 11 13 14 13 13 12 12 11 10 10 10 9 8 7 7 6 5 5 4 3 2 1 1 1 1 1 1 2 1 2 2 3 4 4 5 5 6 8 8 9 10 10 12 13 13 15 14 14 14 14 15
4 4 1 1 1 2 2 2 6 7 5 8 7 2 4 2 2 7 7 5 4 2 1 1 4 1 2 4 3 4 9 13 3 3 2 1 2 3 7 7 5 9 9 10 10 10 10 12 14 13 13 13 12 12 11 11 10 9 8 7 7 6 6 4 5 2 3 1 1 1 1 1 1 2 1 2 3 3 4 5 5 6 7 9 9 9 10 11 12 13 13 14 14 14 15 13 14
4 5 1 1 2 2 1 2 8 5 7 9 4 4 4 6 8 5 4 6 2 1 1 1 1 3 5 3 5 6 4 1 3 3 5 2 4 5 9 9 6 8 10 9 10 10 8 12 14 14 13 13 13 12 11 11 10 9 8 7 7 7 5 5 3 4 2 2 1 1 1 1 2 1 1 2 3 3 4 4 5 7 8 9 8 8 10 11 12 13 14 14 15 13 16 15 14
4 3 1 1 1 1 3 3 8 8 9 7 7 2 4 4 4 1 2 4 1 1 3 5 5 2 6 10 6 4 10 8 5 4 3 2 1 5 8 9 6 7 7 7 9 9 9 11 15 14 14 14 13 13 12 11 10 9 8 8 7 6 6 4 4 3 3 2 2 1 1 1 1 1 2 2 3 3 4 4 5 6 7 7 7 9 10 12 13 12 14 14 14 15 14 15 15
4 1 3 1 2 3 3 4 5 5 10 6 6 2 4 4 3 2 2 1 1 3 4 2 4 3 3 6 2 4 0 2 3 4 2 1 2 4 8 8 6 8 8 9 9 9 9 13 14 14 14 14 14 13 13 11 10 10 9 8 7 6 6 5 5 3 3 2 2 1 1 0 1 1 2 3 3 3 4 5 5 5 6 8 8 9 11 12 13 13 14 14 14 16 16 16 15
2 2 1 1 2 3 2 4 6 9 10 5 7 6 2 2 4 3 5 2 1 4 2 5 4 1 4 5 4 5 1 4 4 4 3 2 2 6 8 6 7 9 9 9 9 8 9 10 14 13 13 14 14 14 13 12 11 10 9 8 8 7 6 6 5 4 4 3 2 2 1 1 0 1 2 2 3 3 4 4 5 5 6 8 8 9 11 12 12 13 14 14 15 15 16 16 16
2 3 2 2 3 2 7 8 9 9 9 5 9 9 8 2 2 3 5 1 4 3 3 4 1 3 6 2 4 10 0 1 3 2 2 3 1 7 8 6 8 10 10 9 8 8 10 11 13 13 13 13 14 14 13 13 12 11 10 9 8 7 7 6 6 5 5 3 3 2 2 1 0 0 1 2 3 4 4 4 5 5 6 8 9 9 10 12 12 12 14 14 15 15 16 16 16
0 4 1 3 3 2 8 10 10 8 4 5 5 8 8 3 1 3 5 3 2 4 7 4 3 2 4 1 5 4 0 4 2 2 2 0 4 6 7 7 8 9 10 8 8 7 8 10 12 12 13 13 13 13 13 13 12 12 11 9 9 8 7 7 6 6 5 5 4 3 2 1 0 1 1 2 3 4 4 4 5 5 6 8 8 9 11 11 12 13 14 15 15 16 16 16 16
2 0 0 2 6 2 6 9 10 5 7 1 7 7 8 4 3 5 9 4 2 5 4 7 7 3 2 0 6 3 1 1 3 2 2 1 5 8 5 8 9 9 9 8 7 6 9 10 11 12 12 13 13 13 13 13 12 12 11 10 9 8 8 7 7 7 6 5 5 4 3 1 0 1 1 2 3 3 4 4 5 5 6 8 8 9 10 11 12 13 14 14 14 15 15 16 16
1 3 2 3 2 8 9 9 8 9 9 4 8 9 7 4 5 6 8 7 7 1 2 3 2 10 4 9 8 6 2 2 1 4 5 3 4 7 6 8 7 10 9 8 7 7 7 7 9 11 12 12 13 13 13 12 12 12 12 11 10 9 8 8 7 7 6 6 5 4 3 2 1 1 1 2 3 3 4 4 5 5 5 7 7 9 10 11 12 13 14 14 14 15 16 16 16
3 2 2 4 6 9 10 9 11 6 5 1 7 10 9 3 4 6 7 6 1 5 4 3 4 12 6 7 6 4 2 1 2 4 4 4 5 8 7 6 4 8 9 9 8 7 6 9 7 10 12 12 12 13 12 12 12 12 12 11 10 10 9 8 7 7 6 5 5 4 3 2 2 1 2 1 2 3 3 4 5 5 5 6 8 9 10 11 12 13 14 14 14 15 15 15 15
4 4 3 7 9 9 9 10 11 7 4 4 10 5 2 6 4 5 7 7 6 8 6 11 0 3 5 4 3 2 0 4 4 1 2 4 5 7 6 5 4 5 5 8 7 7 7 7 8 9 10 10 10 11 11 12 12 12 11 11 10 10 9 8 7 6 5 5 4 4 3 3 1 1 1 1 1 2 3 4 5 5 5 6 7 9 9 10 12 13 13 14 14 14 15 15 15
4 3 5 6 9 7 8 7 10 6 7 9 9 2 2 6 8 8 4 5 2 4 8 14 3 3 7 4 2 1 6 4 1 0 2 4 5 5 5 4 4 4 4 6 8 8 7 8 8 8 10 9 9 9 9 11 12 11 11 11 10 9 9 7 6 6 5 4 3 2 2 1 1 1 1 1 1 1 2 4 5 5 5 6 7 8 9 10 11 12 13 13 13 14 15 15 15
4 3 4 8 3 6 7 9 4 9 10 4 2 3 3 3 5 4 2 6 7 8 2 3 4 1 11 4 6 3 2 4 2 1 2 3 3 4 6 5 5 5 5 7 8 8 8 8 8 8 9 10 10 9 8 8 10 11 11 10 10 9 8 7 6 5 4 4 3 3 1 1 2 1 1 1 1 2 3 4 5 5 5 6 7 8 9 10 11 12 13 12 13 14 14 13 14
3 1 4 4 4 2 4 8 9 8 9 0 2 2 4 5 2 1 7 7 5 3 3 2 2 4 2 7 3 3 5 3 2 2 3 3 3 4 4 4 5 5 6 7 8 8 10 8 9 8 9 9 9 8 8 9 9 9 8 8 9 9 8 7 6 5 5 4 4 3 2 2 2 2 1 2 2 2 3 2 4 5 5 5 7 7 8 9 10 11 12 12 13 13 13 12 13
2 3 1 4 9 8 5 8 2 7 9 1 3 1 3 5 3 4 4 5 3 1 2 5 4 6 2 5 3 4 4 2 2 3 4 4 3 3 4 5 6 6 6 7 8 8 8 9 8 8 8 9 8 8 8 8 9 8 7 7 6 7 7 6 6 5 4 4 4 3 2 2 1 1 2 2 2 2 3 4 4 5 5 5 6 7 8 9 9 10 10 11 12 12 12 11 12
0 1 3 5 10 7 5 6 5 9 3 1 3 2 6 2 3 4 1 2 7 4 5 5 9 4 8 9 3 4 3 4 4 5 4 4 4 4 5 5 6 6 5 8 8 8 8 9 10 8 9 10 9 9 7 8 7 6 7 6 6 6 7 6 6 5 5 5 5 4 3 3 1 1 2 1 1 1 3 3 4 5 5 6 6 6 7 7 8 8 9 10 11 12 10 7 10
3 5 5 10 9 8 6 9 6 3 6 1 2 3 4 8 3 3 2 7 10 6 6 7 8 10 13 8 2 3 3 5 6 6 6 5 5 6 6 7 8 9 9 8 9 9 9 9 10 10 8 11 10 7 5 5 5 7 9 8 8 8 7 8 7 7 7 5 5 4 4 3 2 1 1 2 2 1 2 3 3 4 5 5 6 5 6 6 6 6 8 9 10 11 7 7 8
6 2 3 12 7 7 2 3 7 4 8 2 1 2 4 9 3 0 5 8 8 9 11 11 11 15 16 15 13 7 6 6 7 8 8 9 8 10 9 8 9 9 9 9 9 12 9 8 9 11 10 10 10 8 5 6 7 7 8 7 6 7 8 8 7 7 6 5 4 3 4 3 2 2 1 2 3 3 2 2 3 3 3 4 5 4 4 4 4 5 6 8 9 8 7 7 8
3 3 8 9 1 3 2 3 7 9 7 9 7 2 5 5 2 2 7 14 12 13 12 9 10 16 15 14 15 11 9 10 9 9 10 11 11 11 10 10 9 11 11 10 10 9 10 9 11 10 10 10 9 8 6 7 7 7 6 6 6 6 7 6 6 6 5 5 4 4 3 2 2 3 4 3 4 4 3 4 2 4 2 1 5 3 3 2 2 1 4 6 6 6 7 7 6
3 4 7 3 2 6 8 9 10 5 2 8 5 1 5 9 7 5 8 10 16 15 16 16 16 16 16 13 8 6 9 11 11 12 13 13 13 11 11 11 11 10 9 8 7 8 12 11 9 10 9 9 9 7 7 8 7 6 6 5 6 5 5 6 5 6 5 5 4 4 2 2 3 3 2 2 3 1 2 1 2 1 1 0 3 1 1 1 1 3 2 4 6 6 6 7 6
3 8 3 1 3 5 3 4 1 3 1 6 4 6 10 3 2 9 12 14 15 9 6 10 14 15 15 15 6 4 8 10 12 12 14 15 16 15 11 9 7 4 5 7 10 10 12 11 11 9 9 9 9 9 9 8 7 7 6 6 6 5 5 5 5 5 5 5 5 4 3 3 3 3 3 3 2 2 2 1 1 1 1 1 2 1 1 1 1 1 2 4 5 5 6 6 6
8 4 4 4 4 8 1 2 2 4 4 5 7 6 5 7 11 10 13 19 17 12 6 10 12 14 11 4 2 7 9 11 11 13 13 14 15 15 12 10 8 9 8 10 9 9 10 11 11 9 10 10 11 10 8 7 7 7 7 7 6 6 6 6 6 6 6 5 5 4 4 4 4 3 3 3 3 2 2 1 1 1 1 1 1 1 1 1 1 1 2 4 4 5 6 6 5
5 5 3 5 5 9 2 2 3 5 5 9 4 4 7 10 15 1 10 18 20 20 16 11 12 10 5 11 11 12 13 13 14 14 14 15 14 15 13 11 10 9 9 10 9 9 9 13 12 11 11 10 9 9 9 8 7 7 7 6 7 7 7 7 7 7 6 5 5 5 5 4 4 3 3 3 3 3 2 1 1 1 1 1 1 1 1 0 0 1 2 2 3 4 5 5 5
8 9 6 2 2 6 5 2 4 5 10 6 4 9 16 13 12 8 19 19 18 19 15 17 16 14 12 13 17 15 15 15 16 15 11 11 11 10 9 8 9 9 12 11 9 8 9 10 12 13 11 12 10 9 9 8 8 7 7 8 8 8 7 7 7 6 6 6 5 5 5 4 4 3 3 3 2 2 2 2 2 1 1 1 1 1 0 1 0 1 1 2 3 4 4 5 5
10 10 2 2 4 4 3 4 8 8 4 3 6 14 16 9 7 17 26 23 21 17 15 16 13 12 15 15 17 15 14 15 14 13 14 10 9 10 13 12 11 12 13 11 10 10 9 10 12 14 13 11 10 9 9 8 8 8 8 9 8 7 8 7 7 6 6 6 5 5 5 5 4 3 3 3 3 2 2 2 2 2 1 1 1 1 0 1 0 0 1 1 2 3 4 4 4
2 3 3 6 5 2 2 8 5 1 5 3 7 15 11 4 2 15 10 4 7 2 6 6 6 12 13 11 10 10 11 14 13 11 9 8 9 11 13 11 12 15 11 12 11 10 9 10 12 13 13 11 9 10 9 9 9 9 9 8 8 8 7 7 6 7 6 6 6 6 6 5 4 3 3 3 3 3 2 2 2 1 2 1 1 1 0 0 1 0 1 1 2 2 4 4 4
2 1 1 7 7 5 7 5 8 1 7 7 9 15 13 1 1 18 19 7 1 3 7 8 8 10 10 12 11 10 10 12 10 8 14 14 10 10 11 10 14 13 11 14 12 10 9 13 13 13 13 11 11 11 9 9 9 9 8 7 7 7 7 7 7 7 7 6 5 5 6 6 5 4 3 3 3 3 3 2 2 2 1 1 1 1 0 1 1 1 1 2 2 3 4 4 5
1 2 7 5 3 8 6 7 1 3 7 3 3 10 16 11 13 23 21 4 6 11 15 14 15 15 15 13 11 10 11 11 8 9 13 12 10 9 12 12 11 10 9 12 11 10 12 12 12 12 12 11 12 12 10 9 9 8 8 8 7 6 7 7 7 7 7 6 5 6 6 6 5 4 4 4 4 3 3 3 3 2 2 1 0 0 1 3 3 2 2 1 2 3 3 4 5
2 3 3 8 6 9 3 1 1 4 3 2 3 8 4 10 20 18 6 3 3 9 13 12 10 10 10 9 8 9 10 9 10 12 11 9 9 10 12 10 11 10 8 7 10 12 10 7 7 8 11 12 13 11 10 9 9 8 7 7 7 7 7 7 7 7 7 6 6 6 6 6 6 5 5 5 4 3 3 3 3 2 2 2 1 2 3 3 3 3 3 2 2 3 4 5 5
3 2 1 6 4 3 4 1 2 5 2 3 4 8 8 5 7 8 3 2 4 10 12 10 8 8 9 8 9 10 13 11 13 13 12 12 10 9 12 11 10 11 8 8 11 13 12 10 8 7 10 12 12 11 11 10 9 8 8 7 7 7 7 7 7 7 7 6 6 6 7 7 7 6 5 5 5 4 4 3 3 2 2 2 2 2 2 3 3 4 3 2 2 3 4 5 5
1 2 5 2 6 2 3 3 3 4 3 2 4 8 11 11 9 6 1 1 3 8 12 13 14 14 13 11 12 11 12 11 11 13 14 14 11 10 10 12 10 10 12 10 9 9 11 12 10 10 11 12 12 12 11 10 9 8 7 8 6 8 7 7 7 7 7 6 7 6 7 7 7 7 6 5 5 5 4 3 3 2 3 3 2 2 3 4 3 3 2 1 3 4 4 5 5
1 6 6 4 3 4 7 4 0 1 2 2 7 9 11 13 9 2 3 3 6 12 17 16 16 17 14 11 10 10 10 12 10 12 13 12 10 9 9 11 11 12 11 11 10 10 11 12 12 13 13 14 13 12 11 10 9 8 8 7 7 8 7 7 7 6 6 6 7 7 7 7 7 7 7 6 5 5 4 4 3 3 3 3 3 3 3 3 4 3 3 1 1 4 5 6 5
5 3 6 2 4 1 3 4 3 1 2 3 6 7 17 17 15 13 9 10 16 18 20 17 15 12 12 11 11 11 11 11 13 11 11 8 7 9 9 9 10 11 11 11 11 11 12 11 11 12 12 12 11 11 11 10 8 8 7 6 7 7 7 7 6 6 6 7 7 7 7 7 7 7 7 6 5 5 4 4 4 4 4 3 3 3 3 3 3 4 4 3 2 4 5 5 6
2 5 5 4 3 5 7 7 2 3 3 6 7 13 22 23 18 16 16 14 14 18 18 18 17 16 15 12 12 13 12 13 14 12 8 6 8 8 8 8 8 9 8 11 11 10 9 9 9 11 12 12 11 10 9 8 7 6 5 6 6 6 6 6 6 6 7 7 7 7 7 7 7 7 7 7 6 5 5 5 4 5 4 4 3 3 3 4 4 3 4 4 2 2 4 5 6
0 2 2 4 6 3 5 4 3 2 7 8 10 12 17 21 19 13 12 12 16 20 17 16 16 12 13 13 13 12 11 13 11 9 7 6 6 6 6 5 6 6 7 8 10 10 10 9 9 10 11 11 10 9 8 8 7 8 8 6 6 7 6 6 5 6 7 7 7 7 7 8 7 7 7 7 6 6 6 6 6 5 4 4 5 5 5 5 6 6 5 6 6 5 4 5 6
3 1 2 6 6 9 8 6 1 0 4 10 10 12 17 21 21 16 13 13 15 17 17 14 11 10 9 11 12 11 11 12 7 7 9 8 7 6 5 5 5 5 7 8 9 10 11 11 11 12 11 11 10 10 10 10 10 8 7 9 9 8 8 7 6 7 7 7 7 7 7 8 7 8 7 7 7 6 6 6 6 6 5 5 5 5 5 5 5 6 6 5 7 7 4 4 5
4 6 5 7 4 8 3 2 2 2 2 2 2 10 19 21 21 19 11 10 15 14 14 14 10 8 9 9 10 10 10 8 9 8 5 4 3 3 3 3 5 7 7 8 10 11 11 12 12 11 10 11 11 11 10 10 10 10 10 9 8 8 8 8 8 7 7 5 7 7 7 8 8 8 8 8 7 7 7 6 7 7 6 5 5 3 4 5 6 6 6 6 4 6 6 6 5
2 5 4 4 6 5 4 2 1 3 2 7 3 10 17 22 22 20 12 12 11 9 9 11 10 9 8 7 7 8 7 9 6 6 2 2 2 2 2 3 4 6 6 8 9 10 11 11 11 11 10 11 11 11 10 10 9 8 8 7 9 7 5 6 6 6 6 7 7 7 7 7 8 8 8 8 7 7 7 7 7 6 7 5 5 5 5 6 7 7 8 7 6 4 4 4 4
4 4 4 7 2 3 4 3 2 4 2 7 7 11 15 20 17 16 11 6 6 3 5 9 8 10 8 8 5 6 9 7 8 6 4 2 2 2 2 2 3 4 4 6 7 10 8 9 9 10 9 10 10 11 10 9 8 8 5 6 7 6 7 5 3 4 6 6 7 7 7 7 8 8 8 8 6 7 7 7 7 6 7 6 6 6 7 8 7 8 8 7 7 6 6 6 3
5 7 6 6 3 3 5 2 4 4 2 2 10 11 10 9 9 13 4 8 4 4 5 9 9 9 7 6 8 7 9 7 7 8 5 4 4 4 3 2 1 4 6 6 7 8 6 10 9 10 8 10 9 10 11 9 8 7 5 6 5 5 5 5 5 6 7 8 7 8 8 8 8 8 8 8 8 8 7 7 7 7 7 7 6 7 7 8 9 9 9 8 9 7 7 6 5
3 7 11 6 2 4 3 4 5 4 3 2 5 8 3 7 14 15 11 7 6 3 8 10 8 7 4 6 7 3 5 6 7 8 7 7 6 5 3 2 3 4 6 6 6 7 7 8 9 9 8 8 9 10 12 10 10 10 10 9 9 9 8 9 11 12 10 10 10 7 7 8 9 8 8 8 8 7 8 8 7 7 7 7 7 7 7 7 9 9 9 8 9 8 7 7 6
2 1 2 1 2 1 3 4 4 4 3 2 3 4 6 8 15 15 7 6 11 9 4 8 7 4 4 5 3 3 2 3 5 7 6 5 5 4 4 2 3 4 5 4 5 6 7 7 8 9 8 8 8 10 12 10 10 10 13 12 11 12 11 9 7 7 8 7 7 9 8 8 8 9 8 8 8 8 7 8 8 8 8 8 7 7 7 8 8 9 8 8 9 8 6 8 9
5 3 2 4 5 5 3 3 2 5 2 1 1 2 5 6 14 3 1 8 10 6 5 5 3 3 3 3 4 3 4 5 6 7 7 5 5 4 5 3 3 3 2 3 4 5 7 8 8 9 7 8 8 9 12 12 11 11 12 11 10 10 11 10 10 8 7 7 8 9 8 8 8 8 9 8 8 8 8 8 8 8 8 8 8 8 8 8 7 7 8 9 7 7 9 9 8
2 2 0 2 1 1 3 3 3 1 3 3 3 1 2 5 11 2 4 8 3 2 4 6 6 4 1 2 3 4 5 6 7 7 8 8 7 5 4 4 3 3 3 4 5 5 6 7 8 9 9 9 9 12 11 13 11 11 12 10 10 9 8 5 6 6 7 7 8 7 8 8 8 8 8 9 8 9 8 8 9 9 8 8 8 8 8 8 10 10 9 8 9 8 8 8 8
2 4 3 3 3 3 2 2 2 1 1 6 3 1 3 7 10 9 2 2 4 1 1 1 3 4 5 5 6 6 5 5 5 6 7 8 7 5 4 4 5 3 3 4 4 5 6 6 8 10 10 9 9 12 12 13 12 10 11 11 12 10 8 5 6 7 7 7 9 9 8 7 8 8 8 8 8 9 9 9 8 10 9 9 8 9 9 8 8 9 10 10 10 9 7 7 8
4 4 3 2 1 1 1 1 1 1 3 4 4 1 2 4 6 5 5 4 2 1 2 2 3 3 2 3 5 6 6 6 6 7 8 7 6 6 4 4 3 1 1 3 4 5 6 7 9 10 10 8 9 12 13 14 13 11 11 11 12 11 10 8 8 8 7 8 9 9 9 8 8 8 8 8 9 9 9 9 9 9 9 9 8 9 9 9 9 9 8 9 9 10 8 8 7
2 2 3 3 4 2 2 1 1 2 3 4 1 1 2 3 5 4 4 1 4 4 5 8 7 7 8 9 7 6 6 7 8 7 7 6 5 2 1 3 2 2 2 4 4 4 5 7 8 10 10 10 10 11 12 13 12 12 11 12 13 11 11 9 11 11 11 11 11 10 9 7 8 7 8 8 8 9 8 8 9 9 9 9 10 9 9 9 9 8 8 8 9 10 9 8 8
2 2 2 2 2 2 2 2 2 3 2 2 2 2 2 12 16 9 10 8 5 6 6 9 10 10 11 10 8 7 6 7 6 6 5 5 4 4 3 2 2 3 3 5 5 5 5 6 8 10 10 10 10 11 12 13 12 12 12 12 12 10 11 11 11 11 10 10 10 10 10 9 8 8 9 9 10 12 10 9 10 10 10 10 10 10 9 10 9 9 9 9 9 10 10 10 9
4 4 2 1 3 1 3 1 2 3 0 1 2 2 6 9 10 13 17 14 7 7 7 7 5 8 10 10 9 8 7 6 5 5 5 4 4 4 4 3 2 2 2 3 4 5 5 6 8 10 9 10 9 10 12 12 13 13 12 12 12 10 11 11 11 11 10 10 9 11 10 10 10 11 11 12 11 12 11 11 10 11 10 10 10 10 10 9 9 8 9 9 10 9 9 10 11
5 3 1 2 1 1 2 1 4 2 1 2 2 1 4 2 3 2 4 6 6 5 4 2 4 6 8 7 7 8 7 5 3 4 4 4 5 4 4 4 3 3 2 2 3 5 5 6 8 10 10 10 11 11 10 12 12 12 12 11 11 10 10 10 11 10 10 10 9 10 9 8 9 9 10 10 10 11 12 10 11 11 10 10 9 9 8 8 8 8 8 9 8 8 8 8 9
2 1 2 1 2 0 4 2 2 2 2 3 4 5 2 6 7 13 10 8 10 8 7 3 7 2 2 5 4 5 4 4 3 4 4 3 3 3 3 3 3 3 3 3 5 5 6 6 7 8 9 9 10 11 10 11 11 9 11 12 13 11 9 9 9 8 8 9 8 9 9 9 9 8 8 8 9 9 10 11 11 11 10 9 9 9 9 8 8 8 8 7 9 5 7 9 8
4 4 4 0 3 1 4 2 2 1 1 6 1 7 7 6 9 10 4 3 1 2 1 1 2 3 3 4 4 4 4 4 4 4 4 5 3 1 1 3 3 2 2 3 4 4 5 5 6 8 8 8 9 10 10 10 10 10 11 12 11 11 12 12 11 11 10 8 9 9 9 9 8 7 6 6 8 9 9 10 10 10 9 9 9 9 8 8 8 8 8 8 9 7 8 9 8
3 3 2 3 1 3 1 2 1 1 3 3 2 5 8 4 5 2 4 6 4 4 1 3 4 3 4 4 3 3 4 4 5 5 5 6 5 4 3 2 3 3 3 4 5 5 5 6 7 8 8 10 9 9 10 10 11 11 11 12 12 12 11 11 11 10 9 8 8 8 8 7 9 8 6 6 7 8 8 9 8 8 8 9 9 8 9 9 8 8 9 8 8 7 8 7 7
2 3 1 3 2 3 1 1 3 2 3 4 4 5 9 8 10 2 9 5 5 4 3 5 5 3 5 5 5 3 2 2 2 3 3 4 5 4 3 3 3 4 4 4 4 4 5 7 7 8 10 9 10 9 10 9 11 9 9 11 12 12 11 10 10 10 8 9 9 9 9 9 7 7 7 7 7 8 8 9 9 9 8 9 9 9 8 8 9 8 8 8 8 8 8 9 8
1 1 1 1 2 2 3 1 1 0 3 1 4 3 11 5 8 5 8 7 5 5 4 6 6 5 4 4 3 5 6 5 6 6 5 5 5 5 4 3 4 5 4 4 4 4 7 7 8 9 8 8 9 10 10 11 11 10 9 9 10 10 11 11 11 10 10 10 10 10 10 9 10 8 8 9 9 9 10 10 9 9 9 9 9 10 9 9 9 10 9 9 9 11 11 11 10
4 4 2 2 0 1 2 0 2 1 2 1 3 6 8 4 8 8 13 12 8 6 7 5 6 6 3 2 2 4 5 6 6 6 7 7 7 5 3 4 5 5 5 5 5 6 6 6 8 9 10 11 11 12 11 12 10 11 12 13 12 11 12 11 11 11 11 10 10 10 10 10 8 9 8 9 10 10 10 10 11 11 11 11 11 11 10 10 10 11 11 11 10 11 12 11 10
6 9 8 10 9 4 3 4 2 1 2 3 2 9 9 10 7 10 14 11 7 5 6 7 7 6 4 3 3 2 5 6 6 7 7 8 9 8 5 4 4 4 5 6 5 5 7 8 8 8 9 10 11 12 12 11 11 10 13 12 13 11 11 11 12 12 12 11 11 11 11 10 10 9 9 10 10 9 10 11 11 11 11 12 12 12 11 11 11 11 12 8 10 11 12 12 10
Wind_Direction
300 315 331 68 251 311 269 239 274 155 252 270 283 253 318 173 341 287 268 154 263 95 342 110 157 162 203 290 316 342 328 252 247 275 22 66 129 137 191 167 134 150 152 158 163 164 176 172 172 173 175 175 175 177 181 183 183 185 187 185 180 181 176 179 188 173 205 200 250 262 290 311 325 351 9 354 26 17 10 4 353 346 340 331 348 332 336 337 338 337 340 337 337 331 335 332 326
300 300 171 187 51 293 188 341 273 277 249 264 255 213 295 95 253 254 288 301 324 40 44 289 191 258 308 294 304 312 248 221 295 305 329 76 257 224 187 186 156 167 157 161 165 166 172 170 173 176 175 176 177 177 180 183 185 188 188 181 181 179 179 191 175 187 169 215 235 281 286 308 345 358 7 25 17 14 11 5 353 335 339 338 347 337 336 341 339 339 339 335 336 332 332 335 327
312 306 152 186 179 313 115 209 266 262 275 270 265 238 98 255 250 271 324 321 358 83 181 219 283 258 237 243 263 218 277 112 294 250 272 67 271 148 165 172 168 169 160 164 169 169 166 168 175 175 175 177 177 177 180 181 189 190 185 180 183 180 185 175 181 168 180 187 245 260 290 319 342 11 19 9 18 10 6 6 357 349 352 351 340 336 335 341 342 337 335 334 333 341 328 335 334
274 311 340 296 206 163 254 222 254 266 266 276 287 273 214 267 273 279 350 328 316 148 173 181 195 139 234 225 232 35 267 265 201 193 230 192 5 103 144 158 159 166 164 168 172 171 171 162 175 176 176 177 178 178 178 183 189 190 184 181 183 183 175 175 174 177 173 189 224 241 262 319 21 360 354 9 12 3 358 5 360 354 354 338 325 327 338 346 340 335 335 336 334 335 335 335 335
273 267 308 69 273 229 255 270 279 241 255 255 265 102 220 241 242 290 330 47 228 206 194 155 256 147 279 292 360 251 328 178 207 198 289 57 64 141 135 145 162 167 167 174 174 174 171 167 174 177 178 179 178 178 177 183 189 190 183 182 182 178 172 179 179 178 176 200 198 232 272 83 337 345 348 3 11 357 352 354 360 356 341 330 330 339 348 344 342 336 336 335 335 335 335 337 334
257 217 25 254 278 23 255 231 221 232 249 275 268 277 303 200 240 312 304 254 178 206 231 216 277 49 215 210 211 243 138 264 82 194 236 91 103 141 140 147 163 169 169 175 181 177 175 168 176 179 181 181 181 178 178 184 189 188 184 183 182 176 179 179 189 185 186 186 217 217 210 170 203 334 354 9 10 355 349 352 355 351 341 328 338 348 351 345 343 338 335 335 336 333 334 333 330
253 193 73 135 118 221 256 254 253 250 253 211 259 268 267 227 269 306 295 254 148 219 191 227 86 271 263 190 234 240 356 77 217 79 217 57 153 156 148 158 165 170 170 176 181 181 174 172 178 181 184 184 184 180 182 184 187 185 185 187 185 181 179 186 192 194 184 200 204 215 192 177 290 344 18 28 3 359 350 352 349 349 342 328 349 350 347 348 344 339 336 336 334 333 332 331 332
323 269 30 243 215 189 239 251 257 251 246 212 268 266 272 293 151 267 289 284 182 211 176 223 237 231 273 78 279 90 253 221 273 84 41 150 155 165 164 160 168 172 173 175 182 184 162 177 182 185 188 188 188 184 185 186 186 185 185 188 186 184 183 190 193 194 195 191 209 188 193 209 191 13 69 29 3 358 355 347 350 348 340 334 351 352 349 347 343 342 340 338 335 334 334 334 331
327 121 296 224 240 188 260 246 257 241 268 187 253 246 275 278 255 279 275 231 333 237 183 197 200 226 121 247 225 67 216 167 247 282 281 226 185 174 174 179 175 167 174 178 181 178 174 182 187 190 193 192 190 189 189 189 188 186 187 190 190 188 190 191 197 197 195 198 185 190 191 187 131 79 55 25 5 360 356 348 343 348 341 337 351 351 352 345 348 344 341 341 337 334 334 332 333
138 292 186 232 310 247 248 248 240 254 244 245 257 247 240 208 239 227 269 265 237 138 187 51 185 236 355 286 279 237 205 26 309 255 216 203 189 182 188 187 187 168 174 180 180 179 183 179 195 197 197 197 194 194 194 192 192 192 188 192 196 196 194 197 199 200 201 193 188 187 183 175 156 126 57 28 1 3 355 347 342 346 344 339 346 351 351 348 351 342 344 344 339 335 340 342 337
205 91 5 229 224 245 242 253 246 229 238 257 266 248 252 215 226 250 233 257 98 227 105 176 195 238 265 262 255 89 110 185 209 215 151 177 176 191 192 187 186 177 175 180 179 182 183 185 203 208 204 202 200 198 197 197 197 197 193 194 198 200 200 198 202 205 203 195 188 176 175 170 152 136 95 52 24 4 356 345 344 343 346 344 346 349 349 356 350 347 350 345 342 345 346 344 342
214 176 133 234 239 238 246 258 257 266 267 256 263 226 142 210 187 237 219 236 220 217 218 172 264 162 213 256 257 132 117 221 213 185 118 161 182 188 197 180 183 182 177 180 177 186 185 189 195 207 216 211 208 203 201 201 203 202 199 198 202 204 204 203 203 208 206 197 183 178 173 158 160 126 118 107 51 10 1 345 343 343 348 347 346 350 352 351 353 350 349 346 346 347 346 346 344
238 128 208 242 248 240 263 279 268 296 288 249 249 96 106 169 198 233 223 233 186 224 230 202 60 248 271 237 39 245 237 127 49 317 147 180 177 173 185 183 176 189 177 179 186 193 191 195 198 199 203 213 218 212 208 208 208 207 206 205 205 208 208 205 206 207 205 194 181 171 152 141 103 82 112 125 58 26 12 352 345 345 351 351 348 352 353 351 354 353 346 350 347 347 351 352 350
226 203 165 239 67 257 252 262 287 274 262 266 156 96 196 217 227 250 191 234 213 220 30 216 185 237 264 307 257 220 136 84 58 94 149 166 157 168 176 189 181 191 190 192 199 197 195 200 201 201 200 206 207 209 214 214 212 212 210 210 210 211 209 209 208 203 199 188 164 147 114 85 51 46 105 55 32 34 17 5 350 345 355 351 352 357 354 352 358 354 348 350 350 351 354 354 355
202 230 210 262 249 226 221 243 263 254 263 35 71 158 195 249 273 204 223 248 259 72 95 205 205 176 259 194 177 148 118 61 85 109 136 137 145 170 174 186 189 196 192 202 205 201 201 200 202 203 204 203 207 206 207 205 212 214 215 213 213 211 210 206 201 200 197 176 154 130 128 68 40 24 14 355 10 16 21 344 357 341 356 356 357 360 353 359 3 358 352 351 353 1 2 3 359
131 159 230 236 243 222 210 222 194 271 269 217 78 321 265 232 189 229 249 288 315 94 216 195 215 231 334 238 323 104 87 89 119 142 138 139 151 164 185 200 205 200 205 204 206 208 204 200 202 204 205 206 205 206 208 206 197 210 214 212 205 206 202 194 190 191 178 163 137 149 132 194 177 168 354 259 24 348 23 355 348 341 360 359 0 1 355 5 10 0 356 352 4 10 9 8 1
63 275 205 224 248 180 203 219 164 245 313 52 117 202 250 236 133 267 12 267 259 228 200 215 199 234 239 238 74 107 105 119 142 146 154 167 174 190 194 201 205 205 203 210 210 203 204 204 204 205 206 206 205 207 210 208 201 191 206 207 203 192 188 174 174 166 166 159 170 157 182 234 215 230 216 303 258 9 360 349 338 351 4 2 1 359 359 13 15 6 357 1 13 15 6 3 1
167 194 212 231 230 207 208 222 208 358 299 339 176 215 242 272 160 189 187 229 236 247 249 238 249 248 243 251 93 103 143 166 167 171 183 189 192 194 202 204 196 209 201 206 209 206 199 205 206 207 204 206 205 200 201 201 205 204 218 210 208 197 188 177 184 206 192 194 164 175 229 220 238 217 234 262 271 249 149 356 339 343 8 7 358 351 11 16 22 12 1 12 15 13 345 8 4
197 174 198 237 203 235 144 238 243 251 266 326 52 194 246 274 315 145 268 253 218 243 242 235 247 249 247 245 238 200 182 206 186 210 198 199 198 207 205 197 204 206 205 205 205 202 201 198 201 205 209 203 202 201 199 206 208 211 213 211 204 205 201 196 209 199 207 202 193 214 226 230 238 260 293 14 323 360 346 344 317 337 6 4 351 326 18 20 28 23 8 14 20 356 14 12 7
246 197 222 230 166 264 217 213 239 227 283 283 270 186 232 256 254 84 251 271 265 246 260 232 228 256 253 241 232 217 193 221 210 214 220 217 214 215 210 206 203 207 208 202 203 191 192 199 199 204 203 199 195 204 202 207 207 208 209 203 208 204 203 199 208 208 205 203 201 222 229 209 223 253 116 194 240 225 162 202 259 256 231 245 335 276 185 69 276 69 10 353 14 23 18 17 2
139 214 233 224 155 243 237 211 236 246 238 267 283 124 268 253 229 220 259 273 257 253 240 246 263 265 266 263 231 184 215 226 224 223 230 232 231 228 227 214 211 209 206 203 200 189 193 197 195 200 197 196 196 202 199 206 200 202 203 203 204 204 200 200 208 204 208 204 204 222 217 199 225 238 235 231 253 253 269 266 237 274 331 330 314 306 323 52 319 14 348 8 24 24 22 19 2
123 232 253 188 125 228 216 211 228 238 302 256 257 257 267 62 224 227 236 249 266 275 266 212 243 259 268 273 261 178 219 226 226 222 227 229 229 228 225 231 225 212 188 209 209 201 197 196 195 193 190 194 195 204 202 199 193 202 200 200 200 205 202 204 209 206 205 205 208 210 199 206 217 223 219 232 237 250 248 260 274 282 296 258 271 292 16 17 360 26 3 13 22 28 29 23 13
231 179 248 229 204 242 73 186 199 195 217 218 244 254 315 244 264 236 233 242 262 263 264 261 251 262 279 343 261 241 229 230 229 225 221 229 234 234 230 224 219 218 214 219 208 206 196 192 193 190 192 194 198 201 198 193 195 202 202 196 199 204 200 206 208 211 209 197 199 197 216 211 214 219 211 223 229 240 238 243 264 272 277 282 295 291 25 30 342 26 14 18 23 29 31 27 20
258 246 143 223 172 226 198 230 117 218 225 244 266 2 261 262 269 14 248 248 256 263 265 258 258 264 276 268 251 251 254 249 243 237 232 232 229 231 226 223 220 224 221 216 208 202 190 193 189 189 196 193 193 193 195 195 195 194 197 185 200 204 198 204 211 209 203 202 201 208 212 218 211 216 216 219 223 227 228 263 258 249 268 275 281 292 278 150 141 55 14 28 26 29 35 28 26
213 245 225 237 186 234 241 237 238 238 244 268 291 273 259 252 268 343 269 259 257 258 255 256 261 260 256 255 261 257 258 257 254 248 238 241 243 243 236 235 232 224 231 220 213 204 198 194 185 194 197 196 194 184 192 197 193 190 190 196 201 193 202 205 207 200 205 208 195 199 203 211 212 215 213 216 218 219 216 226 234 250 260 272 266 234 274 214 169 87 345 35 34 25 36 39 33
209 229 121 152 229 237 241 262 248 233 253 209 265 256 262 274 340 269 260 262 256 262 260 257 258 258 258 254 255 256 254 256 253 251 242 238 231 240 242 232 229 229 228 221 210 210 199 189 191 198 198 195 193 182 192 192 191 189 192 197 198 185 202 205 194 202 206 203 198 193 194 213 207 211 200 202 212 207 212 216 232 233 260 264 260 254 161 267 145 138 42 68 49 39 46 42 37
206 214 238 255 265 307 216 241 260 68 248 177 237 268 268 84 286 281 257 256 82 142 242 247 245 251 252 250 254 250 248 252 249 254 258 233 232 229 238 225 223 229 221 220 215 211 189 182 197 201 200 194 188 188 191 193 189 195 194 192 193 193 193 188 196 203 205 205 202 177 187 203 204 208 201 197 205 204 210 216 230 223 236 230 255 273 83 305 113 8 24 6 29 56 51 47 42
106 169 208 248 253 239 248 258 259 268 276 200 238 266 278 259 198 248 261 117 123 300 249 229 228 247 250 247 249 250 248 257 258 247 255 251 236 224 232 218 222 225 216 220 214 204 183 190 197 198 196 192 192 193 188 190 190 195 191 191 194 192 183 190 196 200 202 203 191 171 191 190 197 193 196 191 211 203 212 219 223 229 215 210 227 287 191 117 159 104 92 52 73 75 65 56 47
94 254 279 271 261 283 208 241 248 166 247 140 205 280 257 190 228 240 251 130 253 265 273 266 260 260 263 262 257 254 251 256 248 244 245 242 237 222 230 221 221 219 223 223 213 197 194 193 195 196 192 191 195 195 191 193 192 189 188 192 190 177 186 191 196 198 200 197 180 181 189 184 189 194 187 192 201 207 208 211 219 215 206 197 181 105 176 156 157 143 132 169 98 88 77 75 65
191 132 314 300 276 269 111 227 195 212 239 120 204 273 271 201 221 246 264 53 304 276 267 260 252 248 254 255 254 257 255 248 242 239 244 241 234 231 237 231 214 221 224 211 206 207 197 181 184 185 188 193 197 197 194 193 191 188 191 189 185 178 192 191 195 198 197 194 185 179 185 184 191 190 186 183 197 202 197 210 216 198 189 185 201 193 194 189 170 164 155 139 94 84 76 63 62
255 83 260 270 298 260 138 202 162 235 110 213 233 261 275 278 236 237 41 29 245 264 264 266 260 254 256 250 248 251 256 239 244 247 246 244 243 238 235 240 225 219 223 217 207 211 197 191 180 187 185 193 193 198 195 194 185 186 185 185 182 181 185 191 194 195 193 193 185 182 187 186 190 187 188 185 192 200 196 199 209 189 173 201 199 206 216 177 180 172 179 142 107 93 80 74 70
50 277 241 169 226 185 146 115 210 261 109 185 237 265 263 280 299 94 101 230 222 261 267 271 276 276 272 270 268 261 258 259 253 252 252 254 245 242 235 239 232 223 219 222 215 200 204 195 184 193 186 193 194 198 196 195 185 186 186 182 179 176 184 191 190 190 191 191 187 187 185 187 189 187 185 191 189 195 199 194 195 163 171 195 199 186 215 185 172 179 152 175 133 94 92 86 78
103 230 269 232 207 281 307 152 342 343 276 179 232 279 318 281 250 281 131 244 242 269 275 273 271 271 272 264 263 265 272 272 264 255 256 249 245 239 239 242 235 227 223 220 212 193 200 194 186 192 190 194 196 196 195 193 188 186 184 177 179 173 187 188 188 185 187 185 190 194 183 189 189 185 187 189 197 191 197 194 175 170 182 189 184 192 208 186 168 177 139 85 103 116 101 97 92
218 168 246 269 248 312 276 120 124 9 266 226 211 250 259 265 277 274 262 260 280 279 278 277 272 268 269 272 270 270 272 276 277 274 266 254 258 254 248 243 241 234 225 220 215 200 198 191 187 190 190 192 194 192 192 189 190 182 181 178 178 180 187 188 184 179 185 189 190 195 180 190 190 186 187 186 199 192 192 189 172 175 184 182 184 199 196 181 172 178 139 118 117 133 120 111 101
165 175 227 228 188 222 279 291 70 296 163 267 260 255 268 272 270 269 264 273 268 267 272 276 275 275 277 279 278 275 274 270 268 272 273 271 270 260 255 249 240 230 224 216 212 205 193 185 182 188 191 186 187 186 184 184 176 173 170 170 170 185 186 189 178 180 187 189 191 190 178 191 189 186 186 184 196 188 191 185 181 177 188 184 178 194 181 182 172 156 146 129 94 89 117 113 111
358 206 287 299 289 233 249 262 75 315 282 268 249 257 278 284 282 273 265 263 270 274 276 274 271 269 270 270 270 270 266 267 266 270 282 279 262 264 263 244 236 223 219 212 206 199 197 186 184 187 192 186 182 179 175 181 178 183 180 175 183 192 186 180 181 189 187 192 186 182 182 193 186 186 185 185 195 191 192 187 184 175 192 188 184 188 188 184 173 150 140 136 124 108 113 123 129
92 134 247 266 271 275 265 273 47 190 270 255 263 270 277 279 280 278 260 262 263 272 277 274 276 279 267 263 263 268 268 268 279 281 279 270 267 265 256 248 234 220 213 207 204 202 197 192 182 191 186 180 179 178 181 180 179 180 186 190 191 179 181 176 181 192 191 193 177 185 182 193 184 183 185 185 195 193 197 186 184 181 192 194 194 194 192 179 170 163 143 146 143 138 138 151 149
259 270 266 272 214 271 310 285 75 239 281 278 170 288 280 278 283 283 278 256 262 262 269 276 283 293 286 272 270 270 275 285 278 276 259 249 252 236 245 229 212 211 206 204 204 200 195 192 192 190 180 182 187 185 179 184 188 185 178 184 181 170 172 180 188 190 190 177 176 187 189 189 184 187 186 191 193 193 195 189 190 186 190 198 197 178 174 167 166 160 156 149 167 158 156 173 170
192 249 274 278 263 269 261 39 173 155 202 280 46 303 287 286 284 285 284 264 259 258 258 275 292 287 282 272 269 278 284 283 286 273 249 262 277 272 245 236 217 224 210 200 204 199 195 194 197 191 185 181 186 184 181 188 188 184 178 167 175 159 173 181 186 178 173 181 185 190 191 188 185 191 189 190 192 195 198 194 192 187 191 190 179 182 179 182 183 175 177 172 162 174 161 180 181
229 213 230 251 61 329 285 124 51 199 253 300 323 301 282 279 278 275 254 235 247 248 255 261 257 263 257 275 303 297 294 290 294 309 319 315 293 278 253 221 222 207 213 202 200 200 195 199 196 194 185 181 183 187 187 185 180 165 147 139 161 152 174 158 135 137 173 180 188 188 196 190 189 193 189 190 192 195 199 199 192 191 189 190 191 182 185 189 186 187 189 186 175 166 181 189 222
209 231 247 261 237 222 239 343 301 260 253 257 274 255 262 260 308 307 283 153 232 254 257 251 242 236 255 287 286 254 261 279 293 304 307 310 312 296 280 282 252 220 210 208 197 196 194 198 193 192 186 185 185 182 181 171 145 138 117 107 113 100 95 153 175 193 191 191 192 190 196 188 190 194 188 192 195 195 197 201 199 191 191 190 199 192 188 194 190 194 193 189 192 187 181 189 194
238 209 221 243 91 271 265 303 304 252 214 154 338 326 255 324 309 287 300 314 306 242 275 278 270 253 212 257 262 257 239 249 268 282 298 307 301 305 275 237 224 223 220 212 202 200 194 193 192 187 187 184 185 181 180 175 171 169 161 162 171 181 184 179 195 196 182 188 197 180 179 190 191 194 191 192 195 193 194 198 199 193 192 190 200 201 196 190 194 194 198 200 198 206 192 183 191
285 320 346 200 180 290 287 270 254 277 293 107 277 296 295 318 298 290 329 336 313 320 271 281 281 261 228 227 224 221 271 280 250 255 259 288 303 303 290 260 244 233 230 202 196 200 199 194 188 186 186 183 182 177 177 176 177 183 181 181 180 184 190 198 196 186 180 183 180 178 186 185 193 194 193 193 193 195 193 194 197 201 196 194 195 202 199 198 195 198 193 206 207 201 198 201 197
254 54 107 115 154 199 222 251 234 292 290 175 100 245 278 318 285 30 76 323 313 324 15 30 58 126 205 241 248 263 286 290 290 294 296 285 277 283 300 307 274 267 234 200 199 197 195 194 185 186 188 184 175 174 179 186 186 186 187 188 186 188 193 193 182 178 172 170 178 181 183 186 189 197 195 192 193 190 193 191 195 198 198 197 191 203 205 201 197 196 199 205 211 211 205 214 204
38 161 253 136 153 201 206 234 282 344 341 286 119 227 252 223 267 160 4 306 280 41 45 67 60 62 74 254 268 270 272 280 287 289 294 301 302 297 292 284 297 292 243 211 202 191 190 191 188 187 191 186 181 181 183 191 195 191 190 189 193 200 195 181 154 161 171 171 183 182 188 187 189 196 200 194 191 192 191 193 191 198 199 197 193 204 207 201 201 196 195 201 209 212 213 221 221
116 134 122 105 110 83 222 269 267 234 284 276 138 287 257 274 262 285 75 251 236 134 52 337 306 285 284 291 290 295 295 281 270 273 280 287 292 290 282 281 273 258 230 216 196 183 184 183 189 190 193 190 182 183 187 192 197 192 195 196 194 192 189 165 161 171 179 174 191 189 189 191 191 193 199 198 193 195 193 193 192 198 200 198 196 203 201 196 201 204 202 204 206 213 216 219 227
114 160 180 166 160 166 151 33 249 210 231 236 103 69 282 299 269 249 187 216 169 252 202 237 308 312 275 222 293 321 323 316 307 302 291 286 288 284 282 269 268 246 205 206 194 193 187 188 191 195 196 190 183 184 188 194 197 198 201 197 194 190 182 172 176 177 180 178 195 195 193 197 193 195 192 199 199 195 194 194 194 197 201 201 199 200 201 201 203 206 205 206 208 210 213 215 221
204 178 235 242 200 177 185 133 213 240 253 103 56 46 255 234 273 206 253 310 221 241 294 304 303 316 308 317 334 335 324 316 309 306 305 308 309 274 265 266 238 193 168 187 191 191 191 193 192 195 196 193 186 188 191 196 196 201 206 203 201 198 180 181 190 185 185 187 193 192 191 191 195 193 193 196 196 196 194 196 197 196 200 201 203 204 203 201 201 201 204 206 211 210 216 215 216
211 203 234 264 283 311 227 155 218 193 256 89 27 170 239 232 243 294 285 253 236 208 246 280 302 312 315 317 331 324 313 309 305 305 303 309 307 311 303 294 243 208 199 190 188 185 193 199 199 200 201 194 193 191 194 196 198 202 203 205 206 202 195 193 195 195 187 190 190 191 184 193 189 193 199 199 201 192 194 196 194 197 202 204 203 201 203 197 197 197 204 204 209 206 209 211 214
186 196 193 214 252 204 268 257 353 299 94 38 110 114 261 281 285 246 251 269 285 279 245 261 284 296 305 306 323 317 308 304 302 299 295 288 292 297 298 293 289 256 209 198 195 191 190 195 197 207 207 195 196 198 199 200 204 205 204 206 206 202 202 198 202 201 194 194 191 193 189 191 191 198 193 200 196 187 196 201 194 200 204 200 198 201 200 195 196 199 203 206 207 210 209 209 218
190 34 259 277 266 236 271 234 264 324 357 128 190 283 243 295 162 21 270 297 307 273 268 289 288 285 286 296 288 285 287 297 301 298 295 297 304 308 312 318 312 295 261 220 208 207 200 205 201 205 207 197 198 201 201 206 207 207 207 208 208 207 205 203 207 208 199 194 196 194 195 195 197 198 197 199 186 187 194 195 198 199 200 199 196 199 197 195 196 204 207 209 212 211 208 208 218
119 181 34 232 230 19 264 23 321 345 326 269 173 234 271 241 353 303 269 268 260 259 272 309 286 275 299 303 290 291 293 303 313 305 304 299 293 312 306 298 281 271 258 238 220 206 204 210 211 213 215 206 201 203 207 210 213 212 211 210 211 210 209 209 213 211 212 198 197 196 200 200 205 199 195 186 183 183 190 197 199 203 200 198 197 198 194 196 193 201 209 207 210 198 206 209 219
145 174 204 123 17 111 102 152 99 240 214 246 99 278 262 271 262 260 317 295 42 72 181 201 269 285 300 273 271 275 293 306 311 312 311 318 321 253 249 271 271 251 241 234 238 226 222 216 211 216 217 218 210 210 212 212 216 216 217 216 215 213 212 211 212 212 208 203 203 205 208 208 204 202 194 177 177 189 195 196 198 202 202 199 197 196 195 198 193 202 210 207 210 198 207 215 217
133 208 110 99 316 353 240 266 117 281 263 278 118 257 289 41 306 22 299 17 31 55 86 295 283 287 287 262 245 236 248 267 285 291 302 301 290 288 285 246 258 264 253 242 231 220 221 224 217 219 216 215 213 209 213 214 213 218 218 218 219 220 218 219 220 220 209 207 204 208 210 209 208 206 192 178 189 186 194 196 200 201 201 197 198 196 197 198 193 204 210 213 211 199 202 215 218
330 11 352 247 177 193 124 321 247 215 244 282 259 283 259 200 257 294 266 229 224 217 266 307 296 256 258 266 281 280 263 247 238 269 284 284 282 286 283 289 284 269 258 249 244 220 217 218 220 222 224 218 213 210 212 214 213 213 215 215 215 217 219 221 223 224 217 210 209 210 210 214 209 197 198 186 185 188 191 191 198 199 196 195 197 200 195 197 195 205 206 211 204 200 205 213 214
141 258 193 42 294 316 170 210 357 359 292 355 277 51 275 165 209 220 271 253 189 246 217 237 239 241 239 266 291 316 323 318 307 300 281 269 263 250 241 258 275 268 256 243 236 227 227 223 217 221 225 221 215 216 211 215 212 212 212 213 216 216 217 219 219 219 222 219 216 216 216 213 214 202 200 189 192 193 190 189 192 194 192 193 194 198 194 197 195 206 203 205 203 196 206 212 210
178 210 188 143 244 334 333 231 234 266 264 251 311 303 264 213 197 225 254 259 252 246 251 243 249 259 241 241 306 315 306 303 302 299 304 300 292 281 246 224 240 249 248 253 241 233 234 221 221 216 214 214 217 219 214 216 210 212 209 211 211 210 216 217 220 220 222 220 216 218 220 220 213 212 191 194 195 195 192 192 189 192 192 191 193 194 193 195 199 204 206 206 200 194 205 211 210
188 178 196 188 153 173 192 227 78 287 229 239 180 263 285 277 115 221 242 255 257 233 246 256 248 240 269 339 316 293 293 285 286 289 290 293 294 293 277 228 222 236 245 241 232 238 237 230 227 222 218 218 217 215 211 210 208 208 207 209 209 207 207 210 214 217 219 218 216 217 218 214 216 215 197 203 201 198 197 194 194 194 193 194 195 195 192 195 200 202 206 200 201 199 206 212 208